This demonstration page uses our WeatherBlox Daily Observations layout. Learn more.

Left ArrowRight Arrow

39.01783, -85.05884

Hourly Observations for March 11, 2018

Temp ( °F °C ) Dew Point ( °F °C ) Humidity (%) Winds ( mph kmh ) Pressure ( in mb ) Visibility ( mi km ) Precip ( " mm )
12:52 am 00:52 Cloudy 36 2.2 22 -5.6 57 57 ENE 12 19 30.08 1019 10 16 N/A
1:52 am 01:52 Partly Cloudy 34 1.1 22 -5.6 61 61 ENE 12 19 30.08 1019 10 16 N/A
3:52 am 03:52 Clear 33 0.6 22 -5.6 64 64 ENE 10 17 30.07 1018 10 16 N/A
4:52 am 04:52 Clear 32 undefined 22 -5.6 66 66 ENE 12 19 30.06 1018 10 16 N/A
5:52 am 05:52 Partly Cloudy 31 -0.6 21 -6.1 67 67 ENE 12 19 30.08 1019 10 16 N/A
6:52 am 06:52 Mostly Cloudy 31 -0.6 20 -6.7 64 64 ENE 12 19 30.09 1019 10 16 N/A
7:52 am 07:52 Mostly Cloudy 30 -1.1 19 -7.2 64 64 ENE 13 20 30.10 1019 10 16 N/A
8:52 am 08:52 Mostly Cloudy 31 -0.6 19 -7.2 61 61 ENE 14 22 30.11 1020 10 16 N/A
9:52 am 09:52 Mostly Cloudy 33 0.6 20 -6.7 58 58 E 16 26 30.10 1019 10 16 N/A
10:52 am 10:52 Partly Cloudy 36 2.2 20 -6.7 52 52 ENE 18 30 30.11 1020 10 16 N/A
11:52 am 11:52 Mostly Cloudy 38 3.3 20 -6.7 48 48 NE 14 22 30.09 1019 10 16 N/A
12:52 pm 12:52 Mostly Cloudy 43 6.1 22 -5.6 43 43 NE 13 20 30.08 1019 10 16 N/A
1:52 pm 13:52 Cloudy 42 5.6 21 -6.1 43 43 NE 10 17 30.07 1018 10 16 N/A
2:52 pm 14:52 Cloudy 44 6.7 20 -6.7 38 38 NE 14 22 30.05 1018 10 16 N/A
3:52 pm 15:52 Cloudy 44 6.7 20 -6.7 38 38 NE 17 28 30.02 1017 10 16 N/A
4:52 pm 16:52 Cloudy 43 6.1 19 -7.2 38 38 NE 18 30 30.00 1016 10 16 N/A
5:52 pm 17:52 Mostly Cloudy 43 6.1 21 -6.1 42 42 NNE 14 22 30.01 1016 10 16 N/A
6:52 pm 18:52 Cloudy 42 5.6 21 -6.1 43 43 NNE 18 30 30.01 1016 10 16 N/A
7:52 pm 19:52 Cloudy 41 5 22 -5.6 47 47 NE 15 24 30.01 1016 10 16 N/A
8:52 pm 20:52 Cloudy 41 5 23 -5 49 49 NE 15 24 30.01 1016 10 16 N/A
9:52 pm 21:52 Cloudy 40 4.4 24 -4.4 53 53 NE 17 28 30.02 1017 10 16 N/A
10:52 pm 22:52 Cloudy 39 3.9 24 -4.4 55 55 NNE 20 31 30.01 1016 10 16 N/A
11:52 pm 23:52 Cloudy 38 3.3 25 -3.9 60 60 NNE 18 30 30.01 1016 10 16 N/A

Powered by AerisWeather